User: anonymous   Login
Location: Unspecified
(0.0000°N, 0.0000°E)
Time: 20:30:34
(UTC+00:00)
Language:

IUE - Orbit

View from above orbital plane
View from above orbital plane
View from above satellite
View from above satellite

Ground track
Ground track

The orbit data is extracted from the following two-line orbital elements,

1 10637U 78012A   18172.76170251 -.00000249 +00000-0 +00000-0 0  9999
2 10637 042.6619 330.9386 1592317 217.6416 149.0613 01.00080885099882
Epoch (UTC): 21 June 2018 18:16:51
Eccentricity: 0.1592317
inclination: 42.6619°
perigee height: 29117 km
apogee height: 42562 km
right ascension of ascending node: 330.9386°
argument of perigee: 217.6416°
revolutions per day: 1.00080885
mean anomaly at epoch: 149.0613°
orbit number at epoch: 9988

The dashed part of the orbit path shows where the satellite is in the earth's shadow,  

DLR